Regional Weather Roundup
Issued by NWS Grand Forks, ND

Home | Current Version | Previous Version | Graphics & Text | Print | Product List | Glossary On
Versions: 1 2 3 4 5 6 7 8 9 10 11 12 13 14 15 16 17 18 19 20 21 22 23 24 25 26 27 28 29 30 31 32 33 34 35 36 37 38 39 40 41 42 43 44 45 46 47 48 49 50
198
ASUS43 KFGF 101410
RWRFGF
PRAIRIE TO PINES  WEATHER ROUNDUP
NATIONAL WEATHER SERVICE EASTERN NORTH DAKOTA/GRAND FORKS ND
800 AM CST SUN DEC 10 2017

 **SATELLITE DATA USED TO AUGMENT SKY COVER AT AUTOMATED STATIONS**
 *****  WEATHER ACROSS EASTERN NORTH DAKOTA  *****

CITY           SKY/WX    TMP DP  RH WIND       PRES   REMARKS
GRAND FORKS    MOCLDY    15  14  95 NW3       30.01F
GRAND FRKS AFB MOCLDY    14  12  91 NW3       30.01F
GRAND FRKS NWS   N/A     18 N/A N/A NW1         N/A
DEVILS LAKE    CLOUDY    17  15  92 CALM      29.99R
FARGO          FAIR      18  15  88 NW5       30.03R WCI  11
WAHPETON ARPT    N/A     21  18  86 N7        30.02S WCI  13
$$

 ***** WEATHER ACROSS CENTRAL AND WESTERN NORTH DAKOTA  *****

CITY           SKY/WX    TMP DP  RH WIND       PRES   REMARKS
BISMARCK       FAIR      31  21  66 W6        30.06S
MINOT          FAIR      35  23  61 W14       29.99S
JAMESTOWN      FAIR      27  24  89 W8        29.99S WCI  19
MINOT AFB      CLOUDY    34  23  63 W14       29.98S WCI  25
GARRISON         N/A     33  20  58 NW12      30.02S WCI  24
WILLISTON      CLOUDY    36  19  50 SW6       30.08F
DICKINSON      FAIR      31  18  58 W16       30.07S WCI  20
HETTINGER      FAIR      37  13  37 W13       30.13R
$$

 *****  OTHER AIRPORT OBSERVATIONS IN OUR AREA  *****

CITY           SKY/WX    TMP DP  RH WIND       PRES   REMARKS
WALHALLA       FAIR      18  18 100 CALM      30.01S
GRAFTON AIRPOR NOT AVBL
VALLEY CITY AR NOT AVBL
CANDO          CLOUDY    23  23 100 CALM      30.01R
CAVALIER APRT  FAIR      18  18 100 W3        30.01S
GWINNER          N/A     23  23 100 NW6       30.00F WCI  16
ROLLA          CLOUDY    27  25  93 SW6       29.96S WCI  20
 ***** THE ABOVE OBSERVATIONS ARE NON NWS ARE NOT QUALITY
       CONTROLLED AND MAY MIS-REPORT RAIN FOR SNOW...
$$

  *****  WEATHER ACROSS NORTHERN MINNESOTA  *****

CITY           SKY/WX    TMP DP  RH WIND       PRES   REMARKS
FLAG ISLAND    CLOUDY    16  10  79 N7        29.98R WCI   6
WARROAD        CLOUDY    18  12  79 NW5       29.99R WCI  11
ROSEAU         CLOUDY    19  16  86 NW8       29.99R WCI   9
HALLOCK        CLOUDY    21  18  86 N6        30.01S WCI  14
THF RVR FALLS  CLOUDY    19  16  88 NW7       30.00R WCI  10
BAUDETTE       CLOUDY    16  12  84 N6        29.96R WCI   7
WASKISH        CLOUDY    18  16  93 N5        29.96R WCI  11
CROOKSTON      CLOUDY    19  18  93 N8        30.03R WCI   9
STEPHEN NDAWN    N/A     19  18  93 N6          N/A  WCI  11
GREENBUSH NDAW   N/A     18  16  93 NW7         N/A  WCI   8
$$
  *****  WEATHER ACROSS CENTRAL AND WEST MINNESOTA  *****

CITY           SKY/WX    TMP DP  RH WIND       PRES   REMARKS
FOSSTON        CLOUDY    18  16  93 NW9       29.99R WCI   6
BEMIDJI        CLOUDY    20  17  86 N7        29.94R WCI  11
PARK RAPIDS    CLOUDY    22  18  85 N7        29.94R WCI  13
ELBOW LAKE     FAIR      21  19  91 NW9       29.98F WCI  10
WADENA         CLOUDY    21  19  93 NW9       29.94S WCI  11
DETROIT LAKES  CLOUDY    21  21 100 NW9       29.99R WCI  11
MOORHEAD       FAIR      18  14  86 CALM      30.03R
FERGUS FALLS   FAIR      19  18  93 N13       30.03S WCI   7
MORRIS MN      FAIR      25  19  80 NW12      29.98R WCI  14
STAPLES        CLOUDY    23  19  86 NW9       29.94R WCI  13
$$
  *****  WEATHER ELSEWHERE ACROSS MINNESOTA  *****

CITY           SKY/WX    TMP DP  RH WIND       PRES   REMARKS
DULUTH         CLOUDY    18  14  84 N12       29.86R WCI   5
INTRNTL FALLS  CLOUDY    15   9  76 NW9       29.95R WCI   3
ELY            LGT SNOW  12   9  85 N5        29.88R WCI   4
CLOQUET        CLOUDY    19  14  79 NW12G17   29.88R WCI   7
WHEATON        NOT AVBL
BRAINERD       CLOUDY    25  19  78 NW9       29.92R WCI  15
HIBBING        CLOUDY    16  12  84 N9        29.89R WCI   4
ALEXANDRIA     CLOUDY    24  20  84 NW8       29.95R WCI  15
SAINT CLOUD    CLOUDY    25  21  85 NW10      29.93R WCI  15
MINNEAPOLIS    CLOUDY    26  22  84 NW10      29.93R WCI  16
$$

  *****  WEATHER ACROSS SOUTH DAKOTA  *****

CITY           SKY/WX    TMP DP  RH WIND       PRES   REMARKS
SIOUX FALLS    FAIR      28  24  85 NW7       30.04R WCI  21
BROOKINGS      FAIR      26  23  88 NW8       30.01R WCI  18
WATERTOWN      FAIR      27  24  89 W7        29.99S WCI  19
HURON          FAIR      23  21  92 W7        30.07R WCI  15
SISSETON         N/A     28  24  85 N8        29.99S WCI  20
ABERDEEN       FAIR      29  24  82 W10       30.04S WCI  20
MITCHELL       FAIR      33  25  72 NW10      30.08R WCI  25
PIERRE         FAIR      37  21  52 W14       30.10F
MOBRIDGE       FAIR      33  21  61 N5        30.06R
RAPID CITY     FAIR      41   6  23 NW13      30.22R
$$

  *****  SOME WEATHER IN NEARBY STATES *****

CITY           SKY/WX    TMP DP  RH WIND       PRES   REMARKS
GLASGOW MT     FAIR      27  13  55 W3        30.17S
GREAT FALLS MT FAIR      41   9  26 SW21      30.31F
CHEYENNE WY    FAIR      33   1  25 CALM      30.39S
SCOTTSBLUFF NE FAIR      25  11  55 NW9       30.36S WCI  15
OMAHA NE       MOCLDY    39  24  55 NW15      30.06R
DES MOINES IA  FAIR      31  23  72 NW12      29.98R WCI  22
DAVENPORT IA   FAIR      26  18  71 SW16G22   29.91F WCI  14
CHICAGO IL     MOCLDY    25  16  68 SW13      29.91F WCI  14
EAU CLAIRE WI  CLOUDY    18  15  88 CALM      29.87R
LA CROSSE WI   CLOUDY    24  19  81 CALM      29.88R
$$

  *****  SOME NATIONAL WEATHER *****

CITY           SKY/WX    TMP DP  RH WIND       PRES   REMARKS
LA GUARDIA NY  FAIR      33  19  56 W14       29.90R WCI  23
RALEIGH NC     FAIR      31  25  78 VRB5      30.18R
ATLANTA GA     FAIR      29  23  78 NW9       30.26S WCI  20
NEW ORLEANS LA FAIR      39  37  92 CALM      30.38R
OKLAHOMA CITY  FAIR      31  20  63 SW6       30.30R
ALBUQUERQUE NM FAIR      29   6  38 N8        30.53R WCI  21
SALT LAKE CITY FAIR      22  18  85 SE7       30.65R WCI  13
LOS ANGELES CA FAIR      53  23  31 E6        30.17R
BOISE ID       CLOUDY    26  20  77 E8        30.72F WCI  18
SEATTLE WA     CLOUDY    38  28  67 N10       30.44F
$$

*** WEATHER ACROSS MANITOBA...SASKATCHEWAN AND ONTARIO ***
                ***ONTARIO***

CITY           SKY/WX    TMP DP  RH WIND       PRES   REMARKS
GERALDTON      PTCLDY   -11 -15  84 N5        29.87R WCI -23
THUNDER BAY    MOCLDY    12   5  73 N7        29.91R WCI   2
SIOUX LOOKOUT  MOCLDY    -4  -9  77 N6        29.96R WCI -16
TORONTO        CLOUDY    27  14  59 W16       29.83R WCI  14
BIG TROUT LK   PTCLDY   -20 -26  76 W7        29.99S WCI -37
PICKLE LAKE    CRYSTALS -18 -24  76 NW7       29.96R WCI -35
DRYDEN         CLOUDY     7   3  85 N6        29.94R WCI  -3
KENORA         FLURRIES  12   9  85 N6        29.96R WCI   3
$$
                *** MANITOBA***

CITY           SKY/WX    TMP DP  RH WIND       PRES   REMARKS
BRANDON        CLOUDY    21  18  86 E3        29.99R
DAUPHIN        MOCLDY    16  14  93 E6        30.01S WCI   7
ISLAND LAKE    MOCLDY   -15 -20  76 SW2       30.07F
PILOT MOUND      N/A     19  18  93 W3          N/A
THE PAS        FLURRIES  10   5  79 SE7       30.00S WCI   0
THOMPSON       CLOUDY    -6 -11  77 SW8       30.03F WCI -21
WINNIPEG       CLOUDY    18  16  93 N6        30.03R WCI   9
LYNN LAKE      CLOUDY     0  -4  85 S5        29.91F WCI -10
CHURCHILL      MOCLDY    -2  -6  84 NW10      29.96F WCI -19
GILLAM         MOCLDY   -11 -17  77 W8        30.01F WCI -28
$$
                ***SASKATCHEWAN***

CITY           SKY/WX    TMP DP  RH WIND       PRES   REMARKS
ESTEVAN        MOCLDY    30  23  74 W8        30.01S WCI  23
KINDERSLEY     PTCLDY    25  18  74 SW12      30.08R WCI  14
LLOYDMINSTER   CLOUDY    36  23  60 W16       30.02R
PRINCE ALBERT  MOCLDY    19  16  86 NW3       29.96R
REGINA         MOCLDY    32  25  74 W8        29.99F WCI  25
YORKTON        CLEAR     28  23  80 SW6       29.94S WCI  22
N. BATTLEFORD  PTCLDY    34  23  64 W7        30.03S
LA RONGE       PTCLDY    10   9  92 SW2       29.90F
SASKATOON      PTCLDY    23  18  80 CALM      30.00S
SWIFT CURRENT  CLEAR     36  16  44 W21       30.08S
$$
NOTE: THESE ARE AUTOMATED STATIONS WITH LIMITED QUALITY CONTROL
      "FAIR" INDICATES FEW OR NO CLOUDS BELOW 12,000 FEET WITH NO
      SIGNIFICANT WEATHER AND/OR OBSTRUCTIONS TO VISIBILITY.
      SKY/WX - SKY CONDITION AND SIGNIFICANT WEATHER.
      TMP - AIR TEMPERATURE.    DP   - DEWPOINT TEMPERATURE.
      RH  - RELATIVE HUMIDITY.  PRES - PRESSURE.
      HX  - HEAT INDEX.         WCI  - WIND CHILL INDEX.
$




USA.gov is the U.S. government's official web portal to all federal, state and local government web resources and services.